Weather History for K36U - December, 2013

Change the Weather History Date:

Wednesday, December 11, 2013

  Actual Average (KPVU) Record (KPVU)
Temperature  
Mean Temperature 7 °F -  
Max Temperature 21 °F 36 °F 55 °F (1990)
Min Temperature -7 °F 22 °F 0 °F (2013)
Degree Days  
Heating Degree Days 58    
Moisture  
Dew Point -1 °F    
Average Humidity 80    
Maximum Humidity 92    
Minimum Humidity 58    
Precipitation  
Precipitation 0.00 in - - ()
Sea Level Pressure  
Sea Level Pressure 30.42 in    
Wind  
Wind Speed 0 mph (SE)    
Max Wind Speed 4 mph    
Max Gust Speed -    
Visibility 8 miles    
Events Fog , Snow    
Averages and records for this station are not official NWS values.
T = Trace of Precipitation, MM = Missing Value Source: NWS Daily Summary

Daily Weather History Graph

Daily Weather History Graph

Search for Another Location

Airport or City:

Trip Planner

Search our weather history database for the weather conditions in past years. The results will help you decide how hot, cold, wet, or windy it might be!

Date:

Astronomy

Dec. 11, 2013 Rise Set
Actual Time 7:39 AM MST 4:59 PM MST
Civil Twilight 7:08 AM MST 5:29 PM MST
Nautical Twilight 6:34 AM MST 6:04 PM MST
Astronomical Twilight 6:01 AM MST 6:37 PM MST
Moon 1:35 PM MST (12/11) 2:03 AM MST (12/11)
Length of Visible Light 10h 21m
Length of Day
9h 19m
Waxing Gibbous, 72% of the Moon is Illuminated
Dec 11
Waxing Gibbous
Dec 17
Full
Dec 25
Last Quarter
Jan 1
New
Jan 7
First Quarter

Hourly Weather History & Observations

Time (MST) Temp. Windchill Dew Point Humidity Pressure Visibility Wind Dir Wind Speed Gust Speed Precip Events Conditions
12:15 AM -0.4 °F -8.3 °F -5.8 °F 78% 30.33 in 10.0 mi SE 3.5 mph - N/A   Clear
12:35 AM -2.2 °F - -7.6 °F 78% 30.33 in 10.0 mi Calm Calm - N/A   Clear
12:55 AM -0.4 °F - -4.0 °F 85% 30.33 in 10.0 mi Calm Calm - N/A   Clear
1:15 AM -4.0 °F - -7.6 °F 85% 30.33 in 10.0 mi Calm Calm - N/A   Clear
1:35 AM -4.0 °F - -7.6 °F 85% 30.32 in 10.0 mi Calm Calm - N/A   Clear
1:55 AM -7.6 °F - -11.2 °F 84% 30.32 in 10.0 mi Calm Calm - N/A   Clear
2:15 AM -2.2 °F - -5.8 °F 85% 30.33 in 7.0 mi Calm Calm - N/A   Scattered Clouds
2:35 AM -0.4 °F - -4.0 °F 85% 30.34 in 0.2 mi Calm Calm - N/A Fog Light Freezing Fog
2:55 AM -4.0 °F - -5.8 °F 92% 30.34 in 0.2 mi Calm Calm - N/A Fog Light Freezing Fog
3:15 AM -4.0 °F - -7.6 °F 85% 30.35 in 0.2 mi Calm Calm - N/A Fog Light Freezing Fog
3:35 AM -5.8 °F - -9.4 °F 84% 30.35 in 10.0 mi Calm Calm - N/A   Scattered Clouds
3:55 AM -7.6 °F - -11.2 °F 84% 30.35 in 10.0 mi Calm Calm - N/A   Clear
4:15 AM -5.8 °F - -9.4 °F 84% 30.35 in 10.0 mi Calm Calm - N/A   Clear
4:35 AM -7.6 °F - -13.0 °F 77% 30.36 in 10.0 mi Calm Calm - N/A   Clear
4:55 AM -7.6 °F - -13.0 °F 77% 30.37 in 10.0 mi Calm Calm - N/A   Clear
5:15 AM -7.6 °F - -13.0 °F 77% 30.37 in 10.0 mi Calm Calm - N/A   Clear
5:35 AM -7.6 °F - -13.0 °F 77% 30.38 in 10.0 mi Calm Calm - N/A   Clear
5:55 AM -5.8 °F - -7.6 °F 92% 30.38 in 1.0 mi Calm Calm - N/A   Overcast
6:15 AM -0.4 °F - -4.0 °F 85% 30.39 in 0.2 mi Calm Calm - N/A Fog Light Freezing Fog
6:35 AM -2.2 °F - -7.6 °F 78% 30.40 in 0.2 mi Calm Calm - N/A   Haze
6:55 AM -4.0 °F - -7.6 °F 85% 30.41 in 0.2 mi Calm Calm - N/A Fog Light Freezing Fog
7:15 AM -5.8 °F - -11.2 °F 77% 30.41 in 1.2 mi Calm Calm - N/A   Haze
7:35 AM -7.6 °F - -13.0 °F 77% 30.42 in 10.0 mi Calm Calm - N/A   Clear
7:55 AM -7.6 °F - -13.0 °F 77% 30.43 in 10.0 mi Calm Calm - N/A   Clear
8:15 AM -5.8 °F - -9.4 °F 84% 30.43 in 0.5 mi Calm Calm - N/A Fog Light Freezing Fog
8:35 AM -4.0 °F - -7.6 °F 85% 30.44 in 7.0 mi Calm Calm - N/A   Clear
8:55 AM 1.4 °F - -4.0 °F 78% 30.45 in 7.0 mi Calm Calm - N/A   Clear
9:15 AM 3.2 °F - 1.4 °F 92% 30.45 in 2.5 mi Calm Calm - N/A   Clear
9:35 AM 5.0 °F - 3.2 °F 92% 30.46 in 1.5 mi Calm Calm - N/A   Mist
9:55 AM 10.4 °F - 8.6 °F 92% 30.46 in 4.0 mi Calm Calm - N/A   Clear
10:15 AM 10.4 °F - 8.6 °F 92% 30.47 in 3.0 mi Calm Calm - N/A   Clear
10:35 AM 12.2 °F - 10.4 °F 92% 30.47 in 1.8 mi Calm Calm - N/A Snow Light Snow
10:55 AM 12.2 °F - 8.6 °F 85% 30.47 in 4.0 mi Calm Calm - N/A   Clear
11:15 AM 17.6 °F - 12.2 °F 79% 30.45 in 4.0 mi Calm Calm - N/A   Haze
11:35 AM 17.6 °F - 10.4 °F 73% 30.45 in 7.0 mi Calm Calm - N/A   Clear
11:55 AM 19.4 °F - 10.4 °F 68% 30.45 in 7.0 mi Calm Calm - N/A   Clear
12:15 PM 19.4 °F - 10.4 °F 68% 30.43 in 7.0 mi Calm Calm - N/A   Clear
12:35 PM 17.6 °F - 8.6 °F 68% 30.43 in 5.0 mi Calm Calm - N/A   Haze
12:55 PM 17.6 °F - 8.6 °F 68% 30.43 in 4.0 mi Calm Calm - N/A   Haze
1:15 PM 17.6 °F - 8.6 °F 68% 30.42 in 5.0 mi Calm Calm - N/A   Haze
1:35 PM 17.6 °F - 8.6 °F 68% 30.42 in 5.0 mi Calm Calm - N/A   Haze
1:55 PM 19.4 °F - 8.6 °F 63% 30.42 in 7.0 mi Calm Calm - N/A   Clear
2:15 PM 19.4 °F - 8.6 °F 63% 30.41 in 10.0 mi Calm Calm - N/A   Clear
2:35 PM 21.2 °F - 10.4 °F 63% 30.41 in 10.0 mi Calm Calm - N/A   Clear
2:55 PM 21.2 °F - 8.6 °F 58% 30.41 in 10.0 mi Calm Calm - N/A   Clear
3:15 PM 21.2 °F - 10.4 °F 63% 30.41 in 10.0 mi Calm Calm - N/A   Clear
3:35 PM 19.4 °F - 10.4 °F 68% 30.42 in 10.0 mi Calm Calm - N/A   Clear
3:55 PM 19.4 °F - 8.6 °F 63% 30.42 in 10.0 mi Calm Calm - N/A   Clear
4:15 PM 19.4 °F - 8.6 °F 63% 30.43 in 10.0 mi Calm Calm - N/A   Clear
4:35 PM 14.0 °F - 6.8 °F 73% 30.43 in 10.0 mi Calm Calm - N/A   Clear
4:55 PM 6.8 °F - 1.4 °F 79% 30.43 in 10.0 mi Calm Calm - N/A   Clear
5:15 PM 5.0 °F - 1.4 °F 85% 30.43 in 10.0 mi Calm Calm - N/A   Clear
5:35 PM 6.8 °F - 3.2 °F 85% 30.44 in 10.0 mi Calm Calm - N/A   Clear
5:55 PM 3.2 °F - -0.4 °F 85% 30.44 in 10.0 mi Calm Calm - N/A   Clear
6:15 PM 5.0 °F - 1.4 °F 85% 30.44 in 10.0 mi Calm Calm - N/A   Clear
6:35 PM 3.2 °F - -0.4 °F 85% 30.45 in 10.0 mi Calm Calm - N/A   Clear
6:55 PM 3.2 °F -4.2 °F -0.4 °F 85% 30.45 in 10.0 mi South 3.5 mph - N/A   Clear
7:15 PM 3.2 °F - -0.4 °F 85% 30.45 in 10.0 mi Calm Calm - N/A   Clear
7:35 PM 5.0 °F -2.1 °F 1.4 °F 85% 30.46 in 10.0 mi ESE 3.5 mph - N/A   Clear
7:55 PM 3.2 °F - -0.4 °F 85% 30.46 in 10.0 mi Calm Calm - N/A   Clear
8:15 PM 1.4 °F - -0.4 °F 92% 30.46 in 10.0 mi Calm Calm - N/A   Clear
8:35 PM 1.4 °F - -2.2 °F 85% 30.46 in 10.0 mi Calm Calm - N/A   Clear
8:55 PM 3.2 °F - 1.4 °F 92% 30.46 in 10.0 mi Calm Calm - N/A   Clear
9:15 PM 1.4 °F - -2.2 °F 85% 30.46 in 10.0 mi Calm Calm - N/A   Clear
9:35 PM -0.4 °F - -4.0 °F 85% 30.46 in 10.0 mi Calm Calm - N/A   Clear
9:55 PM 1.4 °F - -2.2 °F 85% 30.46 in 10.0 mi Calm Calm - N/A   Clear
10:15 PM -0.4 °F - -4.0 °F 85% 30.45 in 10.0 mi Calm Calm - N/A   Clear
10:35 PM -0.4 °F - -4.0 °F 85% 30.46 in 10.0 mi Calm Calm - N/A   Clear
10:55 PM -0.4 °F - -5.8 °F 78% 30.46 in 10.0 mi Calm Calm - N/A   Clear
11:15 PM -0.4 °F - -5.8 °F 78% 30.46 in 10.0 mi Calm Calm - N/A   Clear
11:35 PM 1.4 °F - -2.2 °F 85% 30.46 in 10.0 mi Calm Calm - N/A   Clear
11:55 PM -2.2 °F - -5.8 °F 85% 30.45 in 10.0 mi Calm Calm - N/A   Clear